Location: Lynch Observatory
(39.9540°N, 75.1861°W)
Time: 11:37:55
(UTC-04:00)

CAS-4B - Pass Details

Date: 28 April 2024
Orbit: 474 x 492 km, 43.0° (Epoch: 26 May)

Event Time Altitude Azimuth Distance (km) Brightness Sun altitude
Exits shadow 03:12:36 24° 78° (ENE) 1,026 ? -27.4°
Drops below altitude 10° 03:14:17 10° 88° (E) 1,661 ? -27.2°
Sets 03:16:31 0° 92° (E) 2,544 ? -26.9°
